BEIDOU IGSO 4

Last updated on April 1, 2019, 3:15 a.m. UTC

1 37763U 11038A   19090.68717382 -.00000123  00000-0  10000-3 0  9991
2 37763  54.4402 189.5890 0059412 221.8078 119.9521  1.00263653 28224
UTC
Height (km)
Latitude
Longitude
Inclination
Orbital Period
UTC large
Height (km)
Speed (km/s)
/
Latitude / Longitude
Inclination (degrees)
Orbital Period (minutes)
Azimuth
Elevation
Range (km)
Doppler Factor
iOS Compass Heading
iOS Angle

Next 30 passes for location: Hong Kong

Rise time Rise Azimuth (degrees) Set time Set Azimuth (degrees) Duration Max altitude (degrees)

No matching passes for this satellites